[[{"header":{"parameterUnit":"m.s-1","parameterCategory":1,"la1":30.2991,"la2":30.254,"lo1":-89.0895,"lo2":-89.0444,"dy":0.0017,"dx":0.0017,"nx":28,"ny":28,"refTime":"2024-08-11T03:00:00:Z","depth":0,"parameterNumber":2,"parameterNumberName":"U-component_of_WINDS"},"data":[0,0,0,0,0,0,0,0,0,0,0,0,0,0,0,0,0,0,0,0,0,0,0,0,0,0,0,0,0,0,0,0,0,0,0,0,0,0,0,0,0,0,0,0,0,0,0,0,0,0,0,0,0,0,0,0,0,0,1.3371,1.3372,0,1.3495,1.3496,1.3498,1.351,1.3509,1.3508,1.3507,1.3637,1.3642,1.3647,0,0,0,0,0,0,0,0,0,0,0,0,0,1.3148,1.3152,1.3371,1.3372,1.3374,1.3495,1.3496,1.3498,1.3511,1.3509,1.3508,1.3506,1.3636,1.3641,1.3647,0,0,0,0,0,0,0,0,0,0,0,0,0,1.3256,1.3153,1.3371,1.3395,1.3398,1.3494,1.3496,1.3498,1.3511,1.3509,1.3507,1.3505,1.3634,1.3641,1.3648,1.373,0,0,1.3669,1.3672,0,0,0,0,0,0,0,0,1.325,1.3264,1.339,1.3393,1.3397,1.3485,1.3466,1.3576,1.3511,1.3468,1.3507,1.3504,1.3589,1.3599,1.3627,1.3736,1.3741,1.367,1.3674,1.3677,1.3679,0,0,0,0,0,0,0,1.3242,1.3259,1.342,1.3392,1.3396,1.34,1.3413,1.3487,1.3538,1.3472,1.3473,1.3487,1.359,1.362,1.363,1.3743,1.367,1.3676,1.368,1.3683,1.3924,1.3926,0,0,0,0,0,0,1.323,1.3252,1.3416,1.3424,1.3317,1.3406,1.3421,1.3459,1.3537,1.3547,1.3489,1.3487,1.3609,1.3622,1.3635,1.3734,1.3677,1.3684,1.3688,1.3922,1.3924,1.3927,0,0,0,0,0,0,1.3225,1.3244,1.3411,1.3338,1.336,1.3412,1.3455,1.3462,1.3492,1.355,1.3559,1.351,1.3608,1.3625,1.3705,1.3739,1.3687,1.3693,1.3919,1.3923,1.3926,1.3935,0,0,0,0,0,0,1.3218,1.3242,1.3273,1.3339,1.3364,1.3479,1.3457,1.3466,1.3504,1.3503,1.3572,1.3581,1.3608,1.3695,1.3712,1.3748,1.3699,1.3916,1.3921,1.3925,1.3932,1.3938,1.3943,0,0,0,0,0,1.321,1.3272,1.3275,1.3295,1.3403,1.3481,1.3495,1.3523,1.3506,1.3538,1.3575,1.3579,1.3732,1.3703,1.3723,1.3761,1.3914,1.3919,1.3924,1.3929,1.3937,1.3943,0,0,0,0,0,0,1.3211,1.3281,1.3285,1.337,1.3419,1.3483,1.3524,1.353,1.3587,1.3584,1.3617,1.3633,1.3711,1.3745,1.371,1.3843,1.3822,1.3831,1.3819,1.3826,1.3832,1.3822,1.3704,0,0,0,0,0,1.322,1.3276,1.3335,1.3405,1.3429,1.3472,1.3507,1.3524,1.3577,1.3598,1.3641,1.3693,1.3753,1.3792,1.385,1.3937,1.3951,1.3973,1.3978,1.3983,1.399,1.4037,1.4047,1.3943,1.3943,1.3943,0,0,1.3242,1.3287,1.3321,1.3406,1.3446,1.3503,1.349,1.3552,1.3595,1.3608,1.3686,1.3719,1.3779,1.3863,1.3902,1.3893,1.4022,1.3989,1.3992,1.3997,1.4043,1.4053,1.4062,1.3946,1.3946,1.3945,0,0,1.3309,1.3349,1.3411,1.3451,1.3511,1.3539,1.3554,1.3616,1.3638,1.3717,1.3727,1.378,1.3882,1.3924,1.3959,1.4041,1.4047,1.4059,1.409,1.4135,1.4143,1.4151,1.4179,1.4188,1.4067,1.4067,1.4067,0,1.3328,1.3414,1.3442,1.3503,1.3539,1.3552,1.3615,1.3653,1.373,1.3755,1.3743,1.3871,1.3913,1.4005,1.4025,1.4053,1.4071,1.4052,1.414,1.4147,1.4155,1.4182,1.4192,1.4068,1.4068,1.4068,1.4067,0,1.3434,1.3494,1.3536,1.3608,1.365,1.3711,1.3748,1.3787,1.38,1.383,1.3909,1.3959,1.4027,1.4051,1.4065,1.4145,1.4137,1.4133,1.4112,1.4165,1.4191,1.4202,1.4069,1.4069,1.4069,1.4068,0,0,1.3506,1.359,1.3605,1.3638,1.3705,1.3752,1.3814,1.3879,1.3911,1.3964,1.4016,1.4102,1.4097,1.4136,1.4156,1.4196,1.4256,1.4186,1.4188,1.4196,1.4346,1.4348,1.436,1.426,1.4262,1.4264,1.434,0,1.358,1.3689,1.3715,1.3809,1.3863,1.3876,1.393,1.3977,1.4006,1.4058,1.4091,1.415,1.414,1.4163,1.4203,1.424,1.4286,1.4235,1.4309,1.4311,1.4292,1.4374,1.4377,1.4447,1.4351,1.4352,1.4354,0,1.3681,1.3733,1.3832,1.3891,1.3915,1.3963,1.4023,1.4072,1.4126,1.4144,1.4188,1.4202,1.4268,1.4243,1.4334,1.4298,1.433,1.4352,1.4356,1.4363,1.4335,1.4382,1.447,1.448,1.437,1.4369,1.4368,0,1.3721,1.3817,1.3888,1.3916,1.3986,1.4019,1.405,1.4102,1.4139,1.4192,1.4217,1.4278,1.4311,1.4358,1.4389,1.4369,1.4477,1.4455,1.4493,1.4492,1.4515,1.4513,1.4608,1.4537,1.4537,1.4537,1.4537,0,1.3801,1.386,1.3907,1.3951,1.4018,1.4047,1.4113,1.4145,1.419,1.424,1.4256,1.4303,1.4341,1.4394,1.4419,1.4489,1.4504,1.4521,1.4527,1.4519,1.4517,1.454,1.4535,1.454,1.4539,1.4539,1.4538,0,1.3857,1.3891,1.3969,1.4028,1.4045,1.4092,1.4143,1.4186,1.4215,1.4278,1.4295,1.4341,1.4403,1.4438,1.4518,1.4534,1.4612,1.4616,1.4593,1.4595,1.4631,1.4626,1.4743,1.4759,1.4679,1.4679,1.468,0,1.3905,1.3951,1.4015,1.4049,1.408,1.4135,1.4172,1.4203,1.4241,1.4305,1.434,1.4403,1.4455,1.4554,1.4595,1.4655,1.466,1.4696,1.4669,1.4659,1.4659,1.4655,1.4659,1.4701,1.4702,1.4702,1.4703,0,1.3986,1.4,1.4052,1.4111,1.4154,1.4202,1.4249,1.4276,1.4315,1.4357,1.442,1.446,1.454,1.4602,1.4665,1.4698,1.4707,1.4711,1.4723,1.4715,1.4699,1.4707,1.4605,1.4708,1.4708,1.4707,1.4707,1.4707,1.4039,1.4079,1.413,1.4188,1.4226,1.427,1.4313,1.4346,1.4399,1.4465,1.4481,1.4546,1.4599,1.4684,1.4718,1.4771,1.4764,1.4782,1.4786,1.4789,1.479,1.4691,1.4783,1.4782,1.4782,1.4782,1.4782,0,1.4119,1.4152,1.4205,1.427,1.4315,1.4318,1.4371,1.4408,1.4466,1.4513,1.4563,1.4635,1.4695,1.474,1.4801,1.4834,1.484,1.4849,1.4847,1.4854,1.4793,1.4776,1.4844,1.4844,1.4844,1.4844,1.4843,1.4843,1.4166,1.4235,1.4255,1.4343,1.4376,1.4439,1.4469,1.4509,1.4546,1.4625,1.4675,1.4703,1.475,1.4814,1.4869,1.4881,1.4902,1.4911,1.4923,1.4865,1.4858,1.4852,1.4836,1.4916,1.4916,1.498,1.498,1.4981]},{"header":{"parameterUnit":"m.s-1","parameterCategory":1,"la1":30.2991,"la2":30.254,"lo1":-89.0895,"lo2":-89.0444,"dy":0.0017,"dx":0.0017,"nx":28,"ny":28,"refTime":"2024-08-11T03:00:00:Z","depth":0,"parameterNumber":3,"parameterNumberName":"V-component_of_WINDS"},"data":[0,0,0,0,0,0,0,0,0,0,0,0,0,0,0,0,0,0,0,0,0,0,0,0,0,0,0,0,0,0,0,0,0,0,0,0,0,0,0,0,0,0,0,0,0,0,0,0,0,0,0,0,0,0,0,0,0,0,3.23,3.23,0,3.2327,3.2327,3.2328,3.2297,3.2295,3.2294,3.2293,3.2319,3.232,3.2322,0,0,0,0,0,0,0,0,0,0,0,0,0,3.2215,3.2217,3.2299,3.23,3.23,3.2327,3.2327,3.2328,3.2297,3.2295,3.2294,3.2293,3.2318,3.232,3.2322,0,0,0,0,0,0,0,0,0,0,0,0,0,3.2248,3.2217,3.2299,3.2288,3.2287,3.2327,3.2327,3.2328,3.2297,3.2295,3.2294,3.2292,3.2317,3.232,3.2323,3.2374,0,0,3.2331,3.2332,0,0,0,0,0,0,0,0,3.2246,3.2251,3.2289,3.2289,3.2288,3.2307,3.2307,3.2343,3.2297,3.2293,3.2293,3.2291,3.2316,3.2319,3.2327,3.2375,3.2376,3.2331,3.2333,3.2334,3.2334,0,0,0,0,0,0,0,3.2244,3.225,3.231,3.229,3.2289,3.228,3.2283,3.2314,3.2314,3.2293,3.2291,3.2295,3.2315,3.2325,3.2328,3.2377,3.2331,3.2333,3.2335,3.2336,3.2463,3.2465,0,0,0,0,0,0,3.2244,3.2248,3.2309,3.2311,3.2263,3.2283,3.2286,3.2302,3.2314,3.2314,3.2297,3.2294,3.2321,3.2325,3.2329,3.2386,3.2334,3.2336,3.2338,3.2461,3.2464,3.2466,0,0,0,0,0,0,3.2242,3.2249,3.2308,3.2279,3.2286,3.2286,3.2305,3.2304,3.2314,3.2316,3.2315,3.2307,3.232,3.2325,3.2362,3.2386,3.2337,3.234,3.2459,3.2462,3.2465,3.2503,0,0,0,0,0,0,3.224,3.2249,3.227,3.228,3.2288,3.2343,3.2307,3.2306,3.2319,3.2315,3.2325,3.2325,3.2319,3.2358,3.2365,3.2389,3.2342,3.2457,3.2461,3.2464,3.2499,3.2507,3.2513,0,0,0,0,0,3.2237,3.228,3.2271,3.2279,3.2314,3.2344,3.2349,3.2341,3.2321,3.234,3.2341,3.2325,3.2384,3.2362,3.2369,3.2395,3.2455,3.246,3.2463,3.2496,3.2505,3.2513,0,0,0,0,0,0,3.2273,3.2281,3.2271,3.232,3.2331,3.2339,3.2364,3.2351,3.2369,3.2364,3.2354,3.2356,3.2395,3.2399,3.2376,3.2443,3.2416,3.2421,3.2438,3.2447,3.2453,3.245,3.2344,0,0,0,0,0,3.2287,3.2312,3.2318,3.2359,3.2366,3.2364,3.2377,3.237,3.2382,3.2386,3.239,3.2401,3.2421,3.2435,3.2454,3.2501,3.25,3.2522,3.2528,3.2534,3.2538,3.2558,3.2567,3.2479,3.2479,3.2479,0,0,3.2315,3.2322,3.2339,3.2367,3.2375,3.2399,3.2368,3.2396,3.2413,3.239,3.2424,3.2428,3.2439,3.248,3.2498,3.2485,3.2562,3.2539,3.2543,3.2544,3.2563,3.2572,3.2579,3.2481,3.2481,3.2481,0,0,3.2377,3.2388,3.2421,3.243,3.2443,3.2441,3.2449,3.2458,3.2459,3.2494,3.2476,3.2496,3.2532,3.254,3.2548,3.2611,3.2595,3.2618,3.2651,3.2672,3.2679,3.2685,3.2703,3.2711,3.2623,3.2623,3.2623,0,3.241,3.2447,3.244,3.2468,3.2479,3.246,3.2492,3.2501,3.2519,3.2526,3.2511,3.2554,3.2561,3.2601,3.2616,3.2625,3.2631,3.2615,3.2679,3.2685,3.269,3.2707,3.2715,3.2625,3.2625,3.2625,3.2624,0,3.2485,3.251,3.2536,3.2553,3.2567,3.2598,3.2593,3.2608,3.26,3.2599,3.2632,3.2639,3.2657,3.2667,3.266,3.2706,3.2696,3.2681,3.2652,3.2701,3.2717,3.2724,3.2628,3.2628,3.2627,3.2626,0,0,3.257,3.2582,3.2591,3.2597,3.2609,3.2628,3.2656,3.2674,3.2685,3.2698,3.2719,3.275,3.2734,3.2743,3.2737,3.2755,3.2799,3.2736,3.2736,3.2744,3.2846,3.2855,3.2863,3.279,3.2792,3.2793,3.2843,0,3.263,3.2679,3.2672,3.2718,3.2739,3.272,3.2744,3.2752,3.2752,3.2769,3.2768,3.2788,3.2768,3.2773,3.2791,3.279,3.2819,3.2787,3.2807,3.2807,3.2801,3.2872,3.2883,3.293,3.285,3.2851,3.2852,0,3.2706,3.272,3.2768,3.2773,3.2782,3.2804,3.2817,3.2835,3.2843,3.2842,3.2852,3.2841,3.2866,3.284,3.2873,3.2851,3.2859,3.286,3.2862,3.286,3.283,3.2869,3.2946,3.2952,3.2863,3.2862,3.2861,0,3.2758,3.279,3.2821,3.2828,3.2836,3.285,3.2854,3.2861,3.2872,3.2884,3.289,3.2906,3.2913,3.2925,3.2917,3.29,3.295,3.2924,3.2947,3.2947,3.2956,3.2955,3.3031,3.2967,3.2967,3.2967,3.2967,0,3.2823,3.2852,3.2844,3.2863,3.2894,3.2885,3.2916,3.2917,3.2923,3.2941,3.2927,3.2943,3.2934,3.295,3.2945,3.297,3.2975,3.2972,3.297,3.2972,3.2971,3.2974,3.2969,3.2969,3.2968,3.2968,3.2968,0,3.2885,3.2882,3.2914,3.2919,3.292,3.2942,3.2945,3.2962,3.296,3.2982,3.2987,3.2984,3.3001,3.2996,3.3015,3.3011,3.3043,3.3038,3.3039,3.3037,3.3058,3.3055,3.3136,3.3145,3.3079,3.3079,3.308,0,3.2925,3.2946,3.2952,3.2963,3.2967,3.2986,3.2995,3.2987,3.2998,3.3008,3.3022,3.3038,3.305,3.3078,3.3077,3.309,3.3083,3.3111,3.3085,3.3085,3.3079,3.3076,3.3077,3.3115,3.3116,3.3116,3.3117,0,3.2994,3.2991,3.3006,3.3019,3.3031,3.3042,3.3051,3.306,3.3053,3.3065,3.3082,3.3091,3.3109,3.3124,3.3136,3.3138,3.3125,3.3125,3.313,3.3131,3.3129,3.3126,3.3049,3.3123,3.3122,3.3122,3.3121,3.3121,3.3044,3.306,3.3066,3.3082,3.3088,3.3096,3.3111,3.3111,3.3125,3.3139,3.3133,3.3152,3.3157,3.3172,3.3176,3.3189,3.3179,3.3187,3.3189,3.319,3.3191,3.313,3.3192,3.3192,3.3192,3.3192,3.3192,0,3.3109,3.3111,3.3127,3.3139,3.3151,3.3139,3.3147,3.3158,3.3174,3.3181,3.3192,3.321,3.3224,3.3224,3.3236,3.3246,3.3241,3.325,3.3247,3.3247,3.3202,3.3194,3.3254,3.3254,3.3254,3.3254,3.3254,3.3254,3.3144,3.317,3.3167,3.3195,3.3197,3.3215,3.322,3.3227,3.3232,3.3252,3.3263,3.3263,3.3266,3.3278,3.3289,3.3289,3.3292,3.3303,3.33,3.3257,3.3251,3.3245,3.3237,3.3305,3.3305,3.3343,3.3344,3.3344]}]]